CAPE
0 0 0 0 0 0 0 0 0 0 0 0 0 0 0 0 0 0 0 0 1 2 0 1 2 6 5 18 18 12 188 129 186 153 64 162 372 588 690 755 821 870 776 645 528 490 484 653 669 715 662 608 856 1045 1399 1272 1343 1111 1040 1031 1490 1738 1827 1765 2258 1962 2150 1826 2000 1490 1696 1682 1938 1737 1819 2064 1208 1320 1362 2266 2439 2694 2682 2759 2971 2826
0 0 0 0 0 0 0 0 0 0 0 0 0 0 0 0 0 0 0 0 4 4 4 0 2 0 0 7 10 5 53 44 96 103 277 306 622 646 895 957 848 955 894 766 601 519 518 644 617 690 646 580 596 964 1291 1236 1346 1288 1251 1206 1456 1660 1825 1752 2227 1995 1937 1820 1762 1633 1574 1491 1747 1754 1698 1705 1402 1016 1567 2584 2524 2837 2682 2859 2921 2991
0 0 0 0 0 0 0 0 0 0 0 0 0 0 0 0 0 0 0 0 5 1 6 0 0 0 0 4 6 164 60 60 97 125 231 332 697 611 784 981 938 954 1006 891 781 613 558 617 698 700 659 531 622 862 1145 1159 1236 1282 1147 1282 1582 1615 1836 1760 2150 2005 1832 1831 1708 1630 1542 1421 1304 1642 1678 1576 1424 1109 1136 2677 2758 2846 2795 2826 2884 2995
0 0 0 0 0 0 0 0 0 0 0 0 0 0 0 0 0 0 0 0 0 1 0 0 2 0 0 2 7 242 119 36 104 221 361 294 559 710 636 780 813 887 1034 905 893 748 591 557 769 726 676 536 711 708 962 1036 1130 1303 1249 1285 1596 1570 1827 1818 2080 1970 1805 1788 1698 1590 1477 1309 1262 1334 1600 1458 1302 1322 1196 2723 2768 2756 2878 2884 2807 2914
0 0 0 0 0 0 0 0 0 0 0 0 0 0 0 0 0 0 0 0 0 0 0 1 4 3 2 3 2 8 364 44 122 286 477 437 554 742 652 619 734 843 1131 1103 1006 889 698 583 550 611 602 526 848 738 929 905 1018 1374 1250 1273 1530 1550 1734 1853 1954 1881 1737 1672 1593 1480 1380 1158 1576 1252 1415 1215 1380 873 1796 2364 2620 2778 2861 2862 2956 2809
0 0 0 0 0 0 0 0 0 0 0 0 0 0 0 0 0 0 0 2 4 15 3 0 6 3 3 0 0 1 4 180 214 122 334 576 791 742 687 692 731 803 1134 1158 1066 915 750 575 539 501 593 514 906 844 956 828 879 1285 1220 1289 1506 1434 1676 1769 1821 1795 1660 1420 1204 1270 1376 1164 989 1251 1221 1183 1440 1080 1506 2038 2350 2721 2860 2818 2891 2755
0 0 0 0 0 0 0 0 0 0 0 0 0 0 0 0 0 0 0 0 0 4 8 5 0 8 0 0 0 0 0 4 225 127 189 558 770 752 751 782 744 937 1114 1139 1058 960 862 674 554 596 720 705 980 959 984 880 881 1038 1248 1224 1548 1404 1543 1587 1689 1679 1531 1346 1450 1085 1199 1134 918 1517 1100 1051 1272 1357 1300 1787 2066 2629 2711 2674 2771 2748
0 0 0 0 0 0 0 0 0 0 0 0 0 0 0 0 0 0 0 0 0 0 0 6 0 2 2 0 0 0 0 0 238 202 379 470 745 707 770 840 868 1122 1117 1096 1056 974 930 788 673 608 795 830 905 1094 1109 1053 1005 971 1462 1083 1590 1402 1566 1481 1480 1486 1352 1244 1509 1080 1062 1257 886 1518 1385 1029 1145 1568 1426 1216 1738 2587 2533 2610 2480 2713
0 0 0 0 0 0 0 0 0 0 0 0 0 0 0 0 0 0 0 0 0 0 0 0 4 0 0 0 0 0 0 0 139 121 518 581 822 839 790 835 954 1166 1115 1000 872 914 908 864 757 685 726 932 966 1281 1268 1192 1216 1098 1578 1238 1454 1466 1555 1420 1425 1369 1330 1301 1326 1216 1010 1327 1318 1136 2097 1558 1238 1650 1914 1266 1614 2099 2376 2623 2463 2556
0 0 0 0 0 0 0 0 0 0 0 0 0 0 0 0 0 0 0 0 0 0 0 0 0 0 0 0 0 0 0 0 0 314 438 752 978 889 816 766 880 1085 1059 928 812 840 883 860 810 1035 1039 1033 1145 1359 1445 1362 1416 1278 1659 1495 1410 1614 1479 1476 1377 1365 1268 1302 1424 1297 1014 1232 1568 1491 1938 2127 1444 1582 2454 1203 1346 2109 2339 2541 2616 2536
0 0 0 0 0 0 0 0 0 0 0 0 0 0 0 0 0 0 0 0 0 0 0 0 0 0 0 0 0 0 0 0 0 1 306 779 807 892 864 774 790 860 949 903 912 972 955 898 914 1117 1295 1225 1235 1439 1587 1520 1653 1527 1796 1731 1482 1708 1498 1587 1374 1308 1255 1259 1418 1380 1211 1239 1594 1698 1559 2367 1867 1560 2278 1645 1278 2298 2419 2544 2625 2544
0 0 0 0 0 0 0 0 0 0 0 0 0 0 0 0 0 0 0 0 0 0 0 0 0 0 0 0 0 0 0 0 0 0 408 684 711 795 767 855 802 838 1001 915 916 1147 1049 1052 1013 1077 1382 1401 1383 1523 1724 1715 1894 1828 1870 1897 1675 1780 1676 1646 1461 1310 1302 1288 1402 1482 1492 1349 1625 1836 1583 2038 2254 1770 1849 2438 1682 2174 2444 2621 2535 2534
0 0 0 0 0 0 0 0 0 0 0 0 0 0 0 0 0 0 0 0 0 0 0 0 0 0 0 0 0 0 0 0 0 0 586 561 628 663 785 830 773 913 1079 1052 1165 1305 1265 1232 1156 1112 1258 1509 1482 1655 1790 1845 2062 2068 2006 2028 1832 1836 1879 1728 1666 1375 1426 1403 1467 1575 1662 1606 1750 1842 1762 1764 2252 2028 1882 2092 2458 1944 2713 2589 2574 2525
0 0 0 0 0 0 0 0 0 0 0 0 0 0 0 0 0 0 0 0 0 0 0 0 0 0 0 0 0 0 0 0 0 0 569 503 593 716 755 786 807 962 1122 1153 1203 1330 1330 1304 1223 1122 1184 1543 1622 1674 1897 1948 2163 2207 2161 2173 1972 1888 1990 1886 1852 1522 1507 1497 1612 1599 1750 1772 1931 1960 1885 1831 2040 2351 2064 2030 2341 2370 2203 2720 2631 2580
0 0 0 0 0 0 0 0 0 0 0 0 0 0 0 0 0 0 0 0 0 0 0 0 0 0 0 0 0 0 0 0 0 0 271 604 582 736 799 814 985 1044 1256 1281 1238 1186 1264 1283 1226 1172 1094 1425 1769 1764 1984 2076 2280 2324 2297 2331 2178 2016 2032 1995 2035 1710 1555 1619 1723 1706 1749 1838 1929 2074 2071 2016 2014 2428 2339 2262 2141 2551 2218 2660 2759 2716
0 0 0 0 0 0 0 0 0 0 0 0 0 0 0 0 0 0 0 0 0 0 0 0 0 0 0 0 0 0 0 0 0 0 160 496 585 839 764 1064 1175 1134 1337 1398 1285 1269 1234 1204 1178 1119 1069 1346 1739 1767 2044 2200 2338 2458 2430 2459 2362 2172 2115 2076 2201 1948 1645 1675 1784 1856 1814 1854 1952 2136 2151 2153 2155 2260 2524 2430 2260 2251 2705 2395 2744 2954
0 0 0 0 0 0 0 0 0 0 0 0 0 0 0 0 0 0 0 0 0 0 0 0 0 0 0 0 0 0 0 0 0 0 270 325 563 826 764 969 1054 1040 1158 1249 1299 1312 1332 1240 1144 1104 1061 1338 1707 1823 1995 2329 2438 2625 2575 2585 2564 2337 2224 2118 2178 2154 1840 1728 1802 1942 1903 1898 1972 2044 2178 2166 2195 2139 2554 2637 2407 2271 2470 2807 2668 2945
0 0 0 0 0 0 0 0 0 0 0 0 0 0 0 0 0 0 0 0 0 0 0 0 0 0 0 0 0 0 0 0 0 0 0 36 172 576 738 878 949 936 1002 1060 1207 1227 1376 1400 1245 1103 1166 1521 1611 1730 1901 2318 2531 2740 2785 2748 2691 2523 2374 2226 2128 2210 2084 1861 1799 1908 1961 1936 1978 2033 2114 2148 2167 2076 2199 2850 2760 2558 2473 2766 2957 2853
0 0 0 0 0 0 0 0 0 0 0 0 0 0 0 0 0 0 0 0 0 0 0 0 0 0 0 0 0 0 0 0 0 0 0 0 113 223 429 606 694 836 904 856 886 1007 1262 1467 1433 1323 1336 1566 1742 1750 1836 2328 2546 2782 2960 2980 2869 2700 2560 2440 2222 2160 2206 2080 1964 1902 1938 1936 1960 2030 2082 2153 2161 2084 1966 2339 3033 2914 2791 2750 2984 3037
0 0 0 0 0 0 0 0 0 0 0 0 0 0 0 0 0 0 0 0 0 0 0 0 0 0 0 0 0 0 0 0 0 0 0 0 36 231 321 575 597 782 845 877 928 993 1194 1348 1448 1450 1426 1528 1734 1821 1924 2412 2588 2747 3057 3194 3088 2936 2748 2627 2420 2240 2174 2213 2145 2070 1980 1910 1892 1980 2096 2177 2193 2150 2002 2002 2593 3145 3112 2965 2964 3134
0 0 0 0 0 0 0 0 0 0 0 0 0 0 0 0 0 0 0 0 0 0 0 0 0 0 0 0 0 0 0 0 0 0 0 0 158 168 204 688 647 733 862 944 970 1127 1189 1160 1293 1417 1400 1402 1738 2086 2146 2413 2579 2699 2971 3235 3285 3164 2966 2802 2652 2424 2286 2279 2282 2199 2080 1979 1892 1948 2086 2192 2189 2196 2082 1990 2084 2794 3192 3188 3013 2962
0 0 0 0 0 0 0 0 0 0 0 0 0 0 0 0 0 0 0 0 0 0 0 0 0 0 0 0 0 0 0 0 0 0 0 0 469 343 272 588 839 701 827 943 979 1142 1346 1297 1230 1188 1286 1360 1734 2456 2386 2442 2612 2684 2853 3079 3325 3342 3195 2982 2798 2616 2514 2464 2400 2285 2172 2064 1962 1965 2097 2234 2234 2221 2180 2022 1976 2137 2702 3203 3209 2880
0 0 0 0 0 0 0 0 0 0 0 0 0 0 0 0 0 0 0 0 0 0 0 0 0 0 2 0 0 0 0 0 0 0 0 0 331 516 427 281 890 684 730 874 948 1061 1277 1328 1396 1490 1469 1426 1801 2565 2590 2563 2650 2703 2823 2972 3211 3344 3332 3178 2988 2764 2671 2663 2631 2472 2276 2172 2084 2055 2146 2261 2334 2358 2312 2144 1949 1908 2148 2573 3077 3089
0 0 0 0 0 0 0 0 0 0 0 0 0 0 0 0 0 0 0 0 0 0 0 0 0 0 0 0 0 0 0 0 0 0 0 0 421 488 565 512 603 809 707 736 877 934 1047 1196 1280 1501 1745 1800 2206 2775 2702 2647 2712 2728 2827 2999 3193 3318 3335 3294 3167 2952 2790 2765 2774 2676 2476 2314 2224 2185 2226 2282 2358 2427 2445 2385 2100 1871 1939 2097 2403 2984
0 0 0 1 8 0 0 1 0 0 0 0 0 0 0 0 0 0 0 0 0 0 0 0 0 0 0 6 0 0 0 0 0 0 0 0 378 554 530 548 400 786 763 692 853 965 1015 1093 1163 1413 1768 2012 2381 2929 2929 2788 2754 2796 2773 2933 3271 3428 3485 3436 3337 3125 2930 2877 2857 2776 2619 2431 2306 2294 2284 2313 2349 2408 2445 2446 2372 2105 1978 2114 2180 2431
0 0 0 0 8 0 0 2 0 0 0 0 0 0 0 0 0 0 0 0 0 0 0 0 0 0 0 1 0 0 0 0 0 0 0 0 106 567 552 588 423 618 780 762 879 1108 1141 1524 1939 2268 2436 2739 2895 3065 3121 3028 2920 2873 2836 2836 3216 3542 3567 3602 3545 3319 3012 2901 2880 2828 2694 2524 2396 2349 2340 2322 2310 2372 2432 2366 2360 2421 2279 2234 2328 2389
0 0 0 0 0 0 51 139 76 0 0 0 0 0 0 0 0 0 0 0 0 0 0 0 0 0 0 0 0 0 0 0 0 0 489 658 992 642 597 604 534 393 682 763 840 1100 1299 1855 2526 3044 3099 3131 3174 3240 3303 3226 3108 2999 2903 2875 3051 3628 3823 3776 3691 3532 3210 2899 2802 2761 2710 2586 2487 2403 2369 2340 2247 2203 2294 2327 2245 2373 2542 2448 2392 2416
0 0 0 0 0 0 73 17 21 3 0 0 0 0 0 0 0 0 0 0 0 0 0 0 9 0 0 0 0 0 0 0 0 409 645 1094 1270 1227 571 699 907 511 352 546 659 1076 1587 1977 2456 3067 3286 3320 3297 3312 3500 3398 3272 3132 2984 2944 3074 3537 3883 3926 3794 3650 3437 3133 2810 2669 2657 2593 2496 2456 2418 2351 2252 2160 2172 2218 2185 2160 2384 2574 2478 2358
0 0 0 0 0 0 110 36 15 25 2 0 0 0 0 0 0 0 0 0 0 0 0 120 84 26 0 0 8 0 0 0 0 381 790 1060 1162 1238 709 809 734 570 463 1199 648 1071 1478 1851 2299 2997 3359 3432 3369 3390 3626 3582 3438 3280 3139 3056 3171 3427 3867 3997 3912 3756 3569 3359 3063 2723 2620 2570 2476 2411 2445 2528 2438 2370 2344 2320 2248 2169 2236 2456 2448 2339
0 0 0 0 0 0 26 9 9 4 30 26 0 0 0 0 0 0 0 0 0 0 16 733 119 16 0 0 0 0 24 0 130 9 455 767 1008 1103 942 775 765 1958 2971 2726 872 1120 1470 1958 2288 2962 3428 3519 3463 3454 3741 3752 3621 3433 3401 3437 3354 3369 3650 3986 4012 3887 3708 3526 3298 2970 2728 2624 2502 2406 2414 2597 2671 2599 2485 2423 2349 2177 2172 2534 2602 2415
0 0 0 0 0 2 16 10 0 0 0 1 0 0 0 0 0 0 0 0 0 0 0 466 268 7 0 0 0 0 1 0 0 0 0 375 798 1022 1042 1163 1683 2278 2880 3054 2766 3303 3625 3392 3593 3593 3604 3591 3518 3489 3749 3930 3847 3736 3729 3717 3595 3444 3545 3879 4039 3982 3846 3753 3634 3320 2953 2724 2604 2478 2421 2536 2737 2742 2598 2423 2311 2207 2140 2371 2824 2831
0 0 0 0 0 1 28 53 18 0 0 0 0 0 0 0 0 0 0 0 0 0 0 136 0 18 8 0 84 66 6 0 0 0 0 0 229 421 718 932 1310 2023 2454 3120 3646 4362 4558 4421 4423 4352 3982 3720 3566 3476 3614 3951 3986 3912 3870 3921 3872 3650 3467 3743 3987 4068 4005 3906 3861 3726 3452 3109 2708 2650 2542 2498 2667 2813 2710 2505 2373 2242 2176 2268 2705 3028
2 0 0 0 0 2 27 10 3 0 0 0 0 0 0 0 0 0 0 0 0 44 0 18 1 6 1 0 0 0 0 0 0 0 0 0 0 0 354 650 838 1062 1744 2318 3043 3921 4353 4483 4354 4417 4323 4117 3864 3551 3456 3748 3966 3965 3893 3938 4026 3893 3744 3665 3813 4016 4061 3992 3930 3944 3766 3500 3138 2906 2763 2674 2662 2776 2809 2645 2434 2350 2318 2358 2523 2955
5 2 0 0 0 10 20 30 23 0 0 0 0 0 0 0 0 0 0 0 0 3 0 0 89 139 101 0 0 0 0 0 0 0 0 0 0 0 0 0 307 1251 1302 2081 2633 2768 3382 3827 3868 3934 4047 4074 4042 3917 3620 3620 3810 3930 3860 3852 3956 3999 3886 3685 3705 3924 4033 4025 3970 4077 4000 3784 3486 3170 3109 2991 2869 2789 2840 2797 2580 2416 2464 2546 2577 2688
10 7 0 0 0 10 17 18 0 0 1 0 0 0 0 1 0 0 11 0 0 0 7 23 35 61 190 266 180 1 0 0 0 0 1 38 0 270 307 33 0 1170 1358 1539 1956 2660 2806 3109 3840 4032 4070 4048 3916 3824 3855 3895 3730 3797 3841 3792 3817 3886 3957 3855 3725 3902 4047 4005 3974 4130 4170 4057 3799 3506 3426 3336 3213 3058 2975 2953 2831 2614 2561 2665 2745 2734
15 9 3 0 0 5 6 0 0 0 0 0 0 7 64 15 5 0 17 162 751 497 4 4 2 284 48 0 0 0 0 0 0 0 0 454 2604 2636 2937 3201 3509 2079 2127 4074 4026 3945 3699 3808 4073 4225 3982 3873 3711 3515 3321 3339 3517 3656 3702 3886 3842 3737 3761 3835 3796 3788 4238 4082 3975 4179 4300 4233 4085 3884 3744 3648 3507 3345 3215 3190 3140 2936 2728 2700 2793 2837
12 11 10 2 0 9 2 6 0 0 0 0 4 5 17 6 2 4 123 406 796 710 993 131 36 10 10 0 0 0 0 0 542 2400 2898 2996 2830 2876 3080 3044 3422 3965 4010 4094 4511 4872 4698 4421 4404 4530 4076 3384 2930 2702 3040 3136 3127 3247 3536 3684 4005 3981 3723 3610 3604 3623 4332 4354 4143 4261 4419 4387 4294 4143 4034 3957 3857 3664 3461 3353 3373 3338 3123 2892 2767 2826
12 15 11 8 1 4 5 27 10 29 0 7 0 11 11 7 1 8 535 722 681 967 1131 487 121 0 0 1 0 0 135 1020 1213 2033 3036 3078 3012 2918 3003 3068 3028 2920 2699 2562 2667 3387 4102 3736 3379 3642 3471 3159 3198 3190 4242 4852 4371 3082 3212 3589 3660 4106 4046 3796 3709 3606 3918 4582 4406 4426 4599 4572 4491 4390 4309 4260 4161 4033 3816 3605 3531 3581 3574 3356 3081 2910
3 8 18 11 6 4 2 0 20 12 2 6 16 12 10 7 1 10 615 615 858 1052 1081 1067 908 925 979 633 0 0 447 1096 1152 1687 1974 2861 2890 2755 2763 2689 2636 2458 2865 3389 3327 4324 4758 4929 5180 4842 4341 3739 3898 4834 5065 3908 5139 4835 4202 3266 3492 3706 4105 4032 3799 3703 3701 4480 4642 4539 4735 4818 4772 4717 4657 4578 4473 4358 4229 4045 3869 3808 3919 3812 3598 3326
12 10 15 16 10 3 2 3 44 3 6 9 7 12 7 3 6 3 216 636 844 991 951 902 751 662 557 427 362 697 860 1054 1002 1299 1359 1845 2045 2492 2692 2423 2221 2233 2024 3371 3418 3801 4620 4308 4115 4206 4113 4575 5475 5212 5198 5569 5051 4702 4979 4997 3714 3459 3576 3837 3906 3792 3719 4220 4810 4664 4715 4949 5007 5054 5037 4973 4888 4746 4584 4433 4284 4250 4267 4240 4034 3797
13 11 8 20 8 11 6 7 1 3 6 0 7 8 0 9 0 175 301 846 836 897 863 795 541 426 393 457 620 791 964 943 924 1115 1304 1440 1492 1991 2703 2694 2684 2704 2977 3454 3622 3823 3874 3674 3793 4220 3891 4294 4723 4630 4952 5148 4994 4638 4420 4651 4992 3889 3387 3404 3701 3954 3956 4068 4851 4786 4744 4961 5178 5303 5297 5259 5209 5133 4971 4770 4614 4530 4583 4581 4453 4228
15 15 11 8 12 10 6 19 2 10 2 0 0 3 2 19 267 385 502 665 734 772 788 711 511 355 366 331 374 549 809 882 975 1014 1230 1563 2128 2628 2786 2821 2759 2820 2969 3046 3398 3047 3646 3931 3672 4076 3901 4131 4944 4939 4590 3914 4343 4892 4619 4630 4900 4891 4008 3638 4030 4212 4175 4197 4781 4880 4820 4967 5308 5508 5510 5449 5393 5373 5276 5128 4884 4724 4691 4692 4673 4555
6 11 15 9 12 6 3 16 10 36 21 0 1 0 0 6 292 342 450 639 616 591 594 659 542 328 398 547 464 437 555 719 750 933 1084 1340 1736 2060 2284 2177 2126 2001 2251 2647 2655 2418 3097 4046 3694 3791 3630 3691 4723 4876 4566 4785 4015 4236 4571 4338 4514 5353 4800 4154 4329 4404 4383 4337 4686 4904 4862 4955 5360 5635 5679 5601 5511 5435 5370 5323 5175 4973 4827 4803 4775 4694
3 4 14 12 11 11 14 12 31 58 1 1 1 8 0 13 175 291 467 642 563 472 393 614 588 464 50 322 328 395 476 481 638 656 795 1000 1215 1507 1687 1878 2045 2070 2590 2731 2647 2702 2935 3128 3138 3407 3489 3377 3716 4402 4340 4402 5148 4902 5146 5189 5522 5708 5749 5076 4746 4594 4549 4404 4540 4929 4933 5054 5421 5635 5648 5683 5638 5532 5431 5362 5251 5121 4952 4914 4871 4795
1 11 20 11 13 9 6 10 7 0 0 1 2 0 1 13 113 232 306 450 450 390 357 286 457 452 419 109 231 321 353 520 598 558 587 728 950 1130 1468 1537 1938 1903 2045 2768 2687 2752 2716 2758 2984 3346 3391 3192 3360 4377 4424 4274 4881 5276 5038 4879 5226 5334 5318 5960 5452 4957 4786 4652 4687 5011 5184 5164 5363 5548 5512 5540 5677 5654 5576 5463 5286 5144 5043 5028 4951 4906
4 0 0 1 4 0 0 0 0 0 0 3 4 0 2 12 72 174 286 345 274 328 275 275 190 272 184 0 56 203 308 415 488 605 638 763 842 1038 1253 1500 1752 2088 2252 2591 2522 2423 2543 2694 2862 3109 3093 3087 3290 4026 4329 4290 4448 4765 4907 4838 4822 4928 5124 5768 5932 5145 5019 4936 4922 4971 5320 5410 5359 5422 5338 5331 5512 5649 5694 5609 5404 5226 5255 5141 5017 5001
0 0 0 0 0 2 6 3 2 0 0 6 1 0 0 5 20 43 95 264 250 223 225 217 164 64 0 0 0 65 288 371 458 384 437 632 801 1116 1409 1665 1887 1904 2175 2252 2604 2931 2606 2608 2911 2978 2781 2656 3100 3541 4192 4172 4219 4402 4590 4786 4676 4546 4853 5437 5577 5701 5310 5216 5226 5131 5276 5485 5517 5450 5275 5464 5578 5624 5681 5614 5492 5322 5378 5346 5205 5118
0 0 0 0 0 0 0 0 0 0 2 0 0 0 3 0 3 7 15 191 211 232 204 177 120 21 0 0 0 0 153 392 325 398 426 509 701 1034 1551 1682 1820 1829 2020 2104 2533 2512 2513 2406 2727 2701 2353 2180 2228 2960 3583 3851 3988 4086 4196 4481 4852 5165 4871 5081 5530 5515 5550 5321 5238 5113 5026 5246 6252 5681 5358 5463 5551 5689 5575 5453 5403 5251 5394 5439 5304 5202
1 0 0 0 0 0 0 0 0 0 6 5 0 0 0 0 0 3 12 22 12 154 173 150 124 93 0 0 0 0 40 136 432 405 380 413 737 1154 1418 1439 1501 1649 1860 2264 2158 2339 2364 2453 2551 2325 2180 2186 2292 2156 2574 3160 3557 3797 3798 4352 4890 5410 5413 5576 5505 5254 5459 5308 5064 4918 5190 4912 5394 5142 5069 5066 5082 5257 5344 5348 5416 5142 5104 5058 5098 4981
0 0 0 0 0 0 0 4 0 9 9 0 0 0 0 0 0 1 0 1 20 80 3 2 13 0 0 0 0 0 18 74 334 348 440 612 800 903 1004 1182 1347 1596 1858 2191 2285 2186 2203 2676 2614 2373 2225 2236 2128 2186 2316 2589 3018 3126 3627 4310 4677 4930 4975 5030 5033 5120 5271 5364 5319 5250 5169 5113 4651 4839 4728 4754 4702 4783 5008 4964 5034 5061 4959 4921 4822 4700
0 0 0 0 0 0 0 0 0 0 7 0 0 0 0 0 0 2 5 2 0 0 0 9 0 0 0 0 0 0 34 95 153 313 425 457 512 549 766 1013 1350 1604 1875 2285 2176 2183 2186 2023 2015 2317 2106 1915 2027 1822 1927 2060 2364 2953 3397 4039 4554 4731 4796 4817 4831 4804 4808 4831 4760 4644 4509 4410 4339 4326 4500 4508 4459 4350 4484 4588 4473 4494 4508 4485 4343 4202
Wind_Speed
nan nan nan nan nan nan nan nan nan nan nan nan nan nan nan nan nan nan nan nan nan nan nan nan nan nan nan nan nan nan 41 37 23 17 nan 17 19 21 21 22 24 22 22 21 20 18 20 17 14 14 12 12 13 12 12 7 6 8 7 7 8 7 7 6 9 7 7 5 7 7 5 5 5 4 6 7 6 4 3 2 4 5 5 7 7 9
nan nan nan nan nan nan nan nan nan nan nan nan nan nan nan nan nan nan nan nan nan nan nan nan nan nan nan nan nan nan nan nan nan 22 18 20 21 23 27 26 26 22 20 21 18 18 21 17 16 14 11 12 14 12 13 9 6 9 9 8 10 10 9 7 9 9 8 7 5 5 5 7 6 5 5 7 7 5 4 0 3 4 6 6 7 8
nan nan nan nan nan nan nan nan nan nan nan nan nan nan nan nan nan nan nan nan nan nan nan nan nan nan nan nan nan 38 nan nan nan 25 22 22 20 20 26 28 25 23 21 21 19 20 20 21 19 14 11 11 13 13 14 12 9 9 10 10 12 10 10 9 10 10 8 8 6 6 6 6 8 8 7 7 7 5 3 1 3 4 5 6 6 7
nan nan nan nan nan nan nan nan nan nan nan nan nan nan nan nan nan nan nan nan nan nan nan nan nan nan nan nan nan 29 35 nan 32 30 24 20 17 19 25 27 25 24 23 24 21 20 19 19 19 15 11 11 13 13 14 14 11 10 10 10 12 12 12 11 11 10 9 8 6 7 7 7 6 6 7 7 7 7 4 1 3 3 4 5 6 7
nan nan nan nan nan nan nan nan nan nan nan nan nan nan nan nan nan nan nan nan nan nan nan nan nan nan nan nan nan nan 28 nan 33 35 29 20 19 19 20 24 24 24 24 25 23 19 18 18 19 17 12 11 13 13 14 14 13 12 10 9 11 12 12 12 11 9 10 10 7 6 8 7 10 7 7 7 7 6 5 1 1 2 3 4 5 7
nan nan nan nan nan nan nan nan nan nan nan nan nan nan nan nan nan nan nan nan nan nan nan nan nan nan nan nan nan nan nan 28 33 37 34 28 23 17 16 20 20 20 22 25 25 24 22 19 17 16 13 11 13 13 14 14 13 15 13 12 12 13 14 12 10 9 8 8 7 7 7 6 9 7 5 3 3 3 3 0 1 2 3 4 5 6
nan nan nan nan nan nan nan nan nan nan nan nan nan nan nan nan nan nan nan nan nan nan nan nan nan nan nan nan nan nan nan nan 37 37 37 35 27 19 16 17 20 21 19 19 22 23 23 20 18 16 13 12 13 13 15 16 14 15 15 13 13 12 13 12 11 8 8 8 9 6 6 5 4 5 4 3 4 3 4 5 2 2 3 5 6 7
nan nan nan nan nan nan nan nan nan nan nan nan nan nan nan nan nan nan nan nan nan nan nan nan nan nan nan nan nan nan nan nan 34 35 37 36 31 26 20 17 19 23 21 19 22 24 23 22 20 20 16 13 13 15 15 15 15 15 15 13 14 14 12 11 10 8 7 7 9 8 7 7 5 6 4 3 4 6 4 5 3 3 3 5 6 7
nan nan nan nan nan nan nan nan nan nan nan nan nan nan nan nan nan nan nan nan nan nan nan nan nan nan nan nan nan nan nan nan 30 34 35 36 33 30 25 17 16 20 20 20 20 23 24 22 20 21 17 13 15 16 14 14 15 15 16 14 14 13 12 10 8 8 7 8 9 9 7 7 7 6 7 6 5 6 5 2 4 3 4 5 6 6
nan nan nan nan nan nan nan nan nan nan nan nan nan nan nan nan nan nan nan nan nan nan nan nan nan nan nan nan nan nan nan nan nan 30 32 34 31 30 25 15 14 16 19 20 19 21 24 22 21 22 19 16 14 14 14 14 16 16 16 14 11 11 11 9 8 8 8 8 9 8 6 4 5 6 7 7 4 4 5 5 3 4 5 5 6 7
nan nan nan nan nan nan nan nan nan nan nan nan nan nan nan nan nan nan nan nan nan nan nan nan nan nan nan nan nan nan nan nan nan nan 32 31 25 27 24 20 14 14 17 20 18 16 21 22 22 24 22 16 15 16 16 13 14 15 16 13 10 8 9 8 7 7 8 8 7 6 5 3 3 4 5 7 5 4 5 5 5 6 6 6 7 6
nan nan nan nan nan nan nan nan nan nan nan nan nan nan nan nan nan nan nan nan nan nan nan nan nan nan nan nan nan nan nan nan nan nan 36 34 27 22 22 21 17 13 15 18 18 15 19 21 20 23 22 17 14 15 15 12 12 13 14 13 10 7 5 6 6 6 7 7 6 6 5 4 3 4 4 5 5 5 5 5 6 6 7 7 7 7
nan nan nan nan nan nan nan nan nan nan nan nan nan nan nan nan nan nan nan nan nan nan nan nan nan nan nan nan nan nan nan nan nan nan 31 35 31 26 23 20 14 11 13 16 18 19 20 21 22 23 22 18 14 12 13 13 12 11 12 12 9 5 4 3 5 6 7 7 7 6 5 4 4 4 5 4 5 5 5 6 7 8 8 8 8 8
nan nan nan nan nan nan nan nan nan nan nan nan nan nan nan nan nan nan nan nan nan nan nan nan nan nan nan nan nan nan nan nan nan nan 32 33 34 31 27 19 12 10 13 15 20 23 20 20 20 21 21 19 15 12 12 12 12 11 10 10 8 5 3 2 3 5 6 7 6 6 5 4 5 5 6 5 5 6 6 6 7 8 9 10 11 11
nan nan nan nan nan nan nan nan nan nan nan nan nan nan nan nan nan nan nan nan nan nan nan nan nan nan nan nan nan nan nan nan nan nan 32 34 34 31 31 29 22 19 18 19 24 23 19 18 20 19 19 19 17 14 13 12 12 12 10 9 6 4 2 2 2 3 5 6 6 5 5 4 5 6 7 7 6 7 8 8 8 7 8 10 10 11
nan nan nan nan nan nan nan nan nan nan nan nan nan nan nan nan nan nan nan nan nan nan nan nan nan nan nan nan nan nan nan nan nan nan 34 37 35 33 30 31 25 21 18 19 22 20 18 17 17 16 17 19 18 16 13 12 13 12 10 9 7 5 4 2 1 1 3 5 5 6 6 6 6 7 8 8 8 8 9 9 9 8 7 8 10 10
nan nan nan nan nan nan nan nan nan nan nan nan nan nan nan nan nan nan nan nan nan nan nan nan nan nan nan nan nan nan nan nan nan nan 32 36 41 34 30 27 16 8 9 15 21 21 19 18 17 16 16 17 18 16 12 12 13 13 12 11 8 6 5 3 2 1 1 3 5 5 6 6 6 7 9 10 10 10 9 9 9 8 7 8 9 11
nan nan nan nan nan nan nan nan nan nan nan nan nan nan nan nan nan nan nan nan nan nan nan nan nan nan nan nan nan nan nan nan nan nan nan nan 37 34 32 27 15 9 13 19 23 23 20 18 17 15 15 17 17 16 14 14 15 15 13 11 9 7 5 4 3 2 3 2 3 5 6 6 7 7 9 10 11 11 10 9 9 9 8 8 8 10
nan nan nan nan nan nan nan nan nan nan nan nan nan nan nan nan nan nan nan nan nan nan nan nan nan nan nan nan nan nan nan nan nan nan nan nan 34 32 31 29 24 21 21 19 20 20 17 16 16 15 16 18 15 14 15 17 16 15 13 10 8 8 6 6 4 3 3 4 3 3 4 6 7 6 7 8 9 9 10 11 11 11 10 9 9 10
nan nan nan nan nan nan nan nan nan nan nan nan nan nan nan nan nan nan nan nan nan nan nan nan nan nan nan nan nan nan nan nan nan nan nan nan nan 32 30 29 27 25 20 17 17 17 14 14 15 15 17 19 18 16 16 17 15 13 12 10 7 6 6 5 4 3 3 4 4 3 2 3 4 5 6 7 7 7 8 9 11 12 12 12 11 11
nan nan nan nan nan nan nan nan nan nan nan nan nan nan nan nan nan nan nan nan nan nan nan nan nan nan nan nan nan nan nan nan nan nan nan nan 26 30 30 29 26 22 17 14 15 13 12 13 12 12 16 18 18 17 15 15 13 13 12 10 9 9 8 7 7 5 4 4 4 5 5 5 4 5 5 5 5 5 6 7 8 10 12 13 13 14
nan nan nan nan nan nan nan nan nan nan nan nan nan nan nan nan nan nan nan nan nan nan nan nan nan nan nan nan nan nan nan nan nan nan nan nan 25 28 24 25 26 22 15 12 12 11 11 11 10 11 14 15 16 17 15 13 14 14 11 9 9 8 7 8 6 4 3 2 3 5 5 6 5 6 6 6 6 5 5 6 8 10 12 14 15 16
nan nan nan nan nan nan nan nan nan nan nan nan nan nan nan nan nan nan nan nan nan nan nan nan nan nan nan nan nan nan nan nan nan nan nan nan 22 24 22 22 25 22 17 11 10 11 11 10 11 13 14 13 14 16 17 14 13 12 11 10 8 8 8 8 7 6 5 4 4 4 5 6 6 7 7 7 6 6 7 8 10 11 13 14 16 17
nan nan nan nan nan nan nan nan nan nan nan nan nan nan nan nan nan nan nan nan nan nan nan nan nan nan nan nan nan nan nan nan nan nan nan nan 21 21 22 22 26 23 17 12 11 12 11 12 14 14 12 10 10 14 17 15 12 12 11 9 8 8 9 8 7 7 6 5 5 6 6 6 7 8 8 7 7 8 8 10 11 13 14 15 16 16
nan nan nan nan nan nan nan nan nan nan nan nan nan nan nan nan nan nan nan nan nan nan nan nan nan nan nan nan nan nan nan nan nan nan nan nan 21 22 25 23 22 23 19 17 14 11 14 17 15 13 12 10 10 14 16 16 13 11 10 9 8 7 7 7 7 8 8 8 8 7 7 6 7 7 8 7 7 8 10 11 12 13 14 15 15 15
nan nan nan nan nan nan nan nan nan nan nan nan nan nan nan nan nan nan nan nan nan nan nan nan nan nan nan nan nan nan nan nan nan nan nan nan 22 21 23 21 20 23 22 21 16 12 13 16 14 12 11 9 9 11 13 14 13 12 11 9 8 8 7 6 7 7 7 7 8 8 8 7 6 7 7 8 8 10 11 12 12 13 13 14 14 14
nan nan nan nan nan nan nan 47 nan nan nan nan nan nan nan nan nan nan nan nan nan nan nan nan nan nan nan nan nan nan nan nan nan nan 30 23 27 25 22 19 17 20 24 22 16 12 14 15 13 10 9 8 8 9 10 11 12 11 10 10 10 9 8 8 7 7 6 7 7 7 7 7 7 7 8 9 10 11 12 13 13 13 14 14 14 14
nan nan nan nan nan nan nan nan nan nan nan nan nan nan nan nan nan nan nan nan nan nan nan nan nan nan nan nan nan nan nan nan nan 35 33 25 24 26 23 20 16 16 21 22 19 15 13 12 11 9 7 8 8 8 8 9 11 10 10 10 10 10 10 9 9 8 8 7 6 6 7 7 8 8 9 10 11 13 13 13 13 13 13 13 13 13
nan nan nan nan nan nan 58 nan nan nan nan nan nan nan nan nan nan nan nan nan nan nan nan 26 nan nan nan nan nan nan nan nan nan 36 34 26 27 26 24 23 18 17 24 25 20 16 12 11 10 9 8 9 10 9 8 9 10 9 8 8 9 10 11 11 11 10 10 9 8 8 7 7 7 8 10 12 13 14 14 13 13 13 13 13 13 12
nan nan nan nan nan nan nan nan nan nan nan nan nan nan nan nan nan nan nan nan nan nan nan 20 23 nan nan nan nan nan nan nan 33 nan 30 28 30 30 28 25 25 27 29 26 23 18 13 10 10 9 10 12 13 11 9 10 10 10 10 9 9 10 10 12 12 12 11 11 10 8 8 8 9 10 11 13 14 14 14 14 14 13 13 13 13 13
nan nan nan nan nan nan nan nan nan nan nan nan nan nan nan nan nan nan nan nan nan nan nan 18 24 nan nan nan nan nan nan nan nan nan nan 27 28 31 31 30 30 31 32 29 26 22 16 14 13 12 13 15 16 14 12 11 11 10 9 8 9 9 9 10 11 11 12 12 11 12 11 11 10 11 12 12 13 15 15 15 15 14 12 12 13 14
nan nan nan nan nan nan nan nan nan nan nan nan nan nan nan nan nan nan nan nan nan nan nan 27 nan nan nan nan nan nan nan nan nan nan nan nan 27 29 27 27 26 26 29 30 30 27 23 19 17 16 15 17 18 16 15 15 13 11 9 8 8 9 9 8 8 10 11 11 12 14 14 13 13 13 12 12 13 15 15 16 15 14 12 12 13 13
nan nan nan nan nan nan nan nan nan nan nan nan nan nan nan nan nan nan nan nan nan nan nan nan nan nan nan nan nan nan nan nan nan nan nan nan nan nan 31 31 27 25 27 30 29 27 26 23 20 19 19 21 20 17 15 17 16 13 11 11 10 10 9 7 7 9 11 12 14 16 16 16 16 16 14 13 13 14 16 16 15 14 13 12 12 13
nan nan nan nan nan nan nan nan nan nan nan nan nan nan nan nan nan nan nan nan nan nan nan nan nan 27 35 nan nan nan nan nan nan nan nan nan nan nan nan nan 31 31 32 32 31 29 27 27 25 24 22 20 18 17 18 18 17 15 15 15 14 12 10 10 9 10 12 14 16 18 19 19 18 17 17 15 14 14 15 15 13 12 13 13 13 12
nan nan nan nan nan nan nan nan nan nan nan nan nan nan nan nan nan nan nan nan nan nan nan nan nan nan 34 32 27 nan nan nan nan nan nan nan nan 35 32 nan nan 32 32 34 35 34 33 31 31 30 28 25 23 23 23 21 20 21 19 19 17 15 14 13 12 12 14 15 17 19 21 22 20 19 18 17 16 15 13 12 11 11 12 13 13 12
nan nan nan nan nan nan nan nan nan nan nan nan nan nan nan nan nan nan nan 60 62 52 nan nan nan 36 nan nan nan nan nan nan nan nan nan 46 44 41 40 38 39 36 33 35 37 36 36 36 34 30 28 26 24 22 22 20 21 23 20 21 20 18 16 16 14 14 15 16 17 19 21 23 23 21 19 18 17 15 13 11 11 10 11 11 11 11
nan nan nan nan nan nan nan nan nan nan nan nan nan nan nan nan nan nan 53 63 63 67 59 31 nan nan nan nan nan nan nan nan 56 55 57 52 43 41 41 40 40 40 40 40 38 36 35 37 35 31 29 29 29 28 24 21 20 20 21 21 21 22 20 18 16 16 17 17 18 19 20 22 23 23 21 20 19 16 14 13 11 11 12 10 9 10
nan nan nan nan nan nan nan nan nan nan nan nan nan nan nan nan nan nan 53 57 65 66 70 52 43 nan nan nan nan nan 55 61 58 53 54 51 45 43 42 40 40 40 39 38 34 33 33 32 31 30 31 31 29 27 27 27 23 21 22 21 23 25 23 21 18 19 21 20 19 20 20 21 22 24 24 23 20 17 16 15 14 13 14 10 8 7
nan nan nan nan nan nan nan nan nan nan nan nan nan nan nan nan nan nan 56 58 63 68 71 70 67 65 62 53 nan nan 61 59 55 53 49 48 46 44 42 40 41 41 38 36 33 31 28 28 26 25 26 28 27 25 26 25 26 26 23 22 24 26 24 22 21 23 23 24 23 22 22 22 22 23 24 25 22 18 16 16 16 16 15 11 8 6
nan nan nan nan nan nan nan nan nan nan nan nan nan nan nan nan nan nan 56 58 68 69 70 73 74 71 65 63 65 68 63 59 58 54 50 48 44 43 42 42 43 41 37 35 34 30 29 27 24 23 24 25 24 23 26 28 28 28 29 28 27 25 23 22 25 27 28 28 27 25 24 23 23 22 23 24 22 16 14 16 17 17 14 12 9 8
nan nan nan nan nan nan nan nan nan nan nan nan nan nan nan nan nan 58 53 59 67 67 70 71 74 72 69 71 68 67 65 61 57 54 52 49 48 45 44 43 42 40 39 38 36 31 29 28 24 22 23 22 22 23 26 28 29 28 29 29 29 23 21 26 31 31 30 30 29 28 26 25 23 23 23 25 23 18 15 15 15 16 15 12 11 10
nan nan nan nan nan nan nan nan nan nan nan nan nan nan nan nan 68 60 53 55 65 75 74 77 76 72 72 73 69 67 65 63 62 58 51 47 47 46 46 45 46 45 42 40 40 35 31 30 26 24 26 25 27 28 23 23 24 24 25 26 25 23 25 30 31 31 31 30 30 30 29 28 26 25 25 27 26 22 18 16 15 15 14 14 13 11
nan nan nan nan nan nan nan nan nan nan nan nan nan nan nan nan 66 60 56 63 73 76 77 77 77 75 73 71 70 67 66 68 67 59 48 42 41 41 40 42 46 46 46 43 42 38 34 32 31 29 27 26 26 23 25 23 19 20 21 23 22 22 24 26 28 29 29 29 29 30 30 30 30 28 27 27 27 25 23 21 18 16 15 14 13 13
nan nan nan nan nan nan nan nan nan nan nan nan nan nan nan nan 64 65 68 67 70 75 79 77 78 77 nan 71 67 62 63 65 64 56 46 42 40 41 41 40 42 46 48 48 45 42 39 36 32 29 28 28 27 27 26 27 21 21 24 24 23 24 24 23 24 24 25 25 27 29 30 32 32 31 30 29 28 27 27 25 22 20 18 17 16 16
nan nan nan nan nan nan nan nan nan nan nan nan nan nan nan nan 71 71 74 73 71 73 77 78 79 78 77 74 67 61 59 59 56 51 47 44 44 44 44 45 45 45 46 46 46 42 40 38 32 33 33 32 32 31 30 29 29 29 27 24 24 26 23 22 21 21 21 23 26 28 29 31 32 32 32 32 31 30 30 28 27 24 23 22 21 20
nan nan nan nan nan nan nan nan nan nan nan nan nan nan nan nan nan 76 78 77 75 74 74 76 76 75 75 nan nan 63 59 57 56 52 50 49 48 45 44 44 43 43 46 45 44 41 40 40 36 34 33 33 33 32 30 30 30 31 27 24 26 26 26 24 23 20 20 22 25 26 28 28 29 31 32 33 32 32 32 31 29 27 27 26 25 24
nan nan nan nan nan nan nan nan nan nan nan nan nan nan nan nan nan nan nan 77 78 77 76 76 76 nan nan nan nan nan 65 62 60 55 52 51 50 48 47 48 44 42 43 45 43 43 42 40 37 35 35 35 33 32 31 30 30 29 29 30 29 28 29 28 28 26 24 24 25 26 26 27 28 30 31 33 33 33 32 32 31 31 30 28 27 28
nan nan nan nan nan nan nan nan nan nan nan nan nan nan nan nan nan nan nan 73 79 80 79 77 77 nan nan nan nan nan 70 65 61 57 55 53 50 49 50 49 46 44 42 42 43 44 43 42 40 38 38 36 34 33 30 30 30 29 31 31 31 29 30 31 30 29 28 27 27 27 27 28 29 31 33 35 35 34 33 33 33 33 33 31 31 32
nan nan nan nan nan nan nan nan nan nan nan nan nan nan nan nan nan nan nan nan nan 78 80 81 79 nan nan nan nan nan nan 67 62 58 56 53 51 50 50 48 46 45 44 42 42 43 43 42 41 40 39 36 34 33 32 32 32 32 33 33 32 32 34 33 32 32 31 29 29 28 29 29 30 34 36 38 41 41 40 36 37 41 41 38 33 33
nan nan nan nan nan nan nan nan nan nan nan nan nan nan nan nan nan nan nan nan nan nan nan nan nan nan nan nan nan nan nan nan 65 61 57 55 53 52 49 48 47 46 44 42 42 44 44 42 42 39 38 36 37 36 35 34 34 34 33 33 33 34 36 37 37 37 36 35 34 33 35 35 36 36 37 39 40 43 46 49 52 46 43 42 45 52
nan nan nan nan nan nan nan nan nan nan nan nan nan nan nan nan nan nan nan nan nan nan nan nan nan nan nan nan nan nan nan nan 66 64 60 54 53 52 50 47 46 47 46 43 44 43 43 44 42 39 38 36 37 36 36 36 35 34 34 34 34 37 36 38 38 38 37 37 37 37 38 38 38 37 39 39 41 43 45 46 50 56 56 52 51 57
Wind_Direction
nan nan nan nan nan nan nan nan nan nan nan nan nan nan nan nan nan nan nan nan nan nan nan nan nan nan nan nan nan nan 281 288 300 313 nan 329 319 319 321 323 327 327 335 334 335 334 331 333 319 309 288 266 261 264 247 236 208 209 220 209 207 203 199 187 190 199 207 209 196 184 173 165 162 141 136 149 125 134 102 31 27 32 40 38 38 41
nan nan nan nan nan nan nan nan nan nan nan nan nan nan nan nan nan nan nan nan nan nan nan nan nan nan nan nan nan nan nan nan nan 313 325 332 321 324 324 321 323 322 321 327 327 331 330 330 324 313 288 273 270 268 265 254 212 203 211 208 207 204 204 200 200 213 211 201 193 197 177 177 177 172 148 143 141 135 163 74 22 27 32 35 38 40
nan nan nan nan nan nan nan nan nan nan nan nan nan nan nan nan nan nan nan nan nan nan nan nan nan nan nan nan nan 277 nan nan nan 314 327 325 317 325 323 315 312 316 320 325 327 329 330 332 330 318 296 275 271 269 272 263 239 211 204 202 203 206 212 211 209 218 221 209 203 204 191 189 182 178 173 161 153 158 173 353 19 25 27 30 37 39
nan nan nan nan nan nan nan nan nan nan nan nan nan nan nan nan nan nan nan nan nan nan nan nan nan nan nan nan nan 282 293 nan 304 309 311 312 317 329 323 311 312 319 318 325 326 332 330 327 331 320 301 277 264 262 260 262 261 225 207 205 206 209 215 218 217 217 220 222 218 209 206 196 198 184 179 171 157 162 180 334 21 30 24 24 30 35
nan nan nan nan nan nan nan nan nan nan nan nan nan nan nan nan nan nan nan nan nan nan nan nan nan nan nan nan nan nan 292 nan 303 304 300 305 316 326 320 311 313 320 319 322 324 326 333 331 330 326 305 279 271 271 265 263 258 229 231 216 216 213 218 219 223 227 220 224 228 220 204 195 200 203 195 181 159 142 176 217 0 17 14 18 24 29
nan nan nan nan nan nan nan nan nan nan nan nan nan nan nan nan nan nan nan nan nan nan nan nan nan nan nan nan nan nan nan 302 303 303 304 309 307 315 321 313 310 317 314 320 323 325 336 336 325 319 310 291 274 278 268 262 257 245 235 227 224 214 217 223 229 230 224 221 238 234 223 207 198 210 198 150 135 117 166 194 236 302 2 10 18 25
nan nan nan nan nan nan nan nan nan nan nan nan nan nan nan nan nan nan nan nan nan nan nan nan nan nan nan nan nan nan nan nan 296 302 301 299 301 316 320 306 308 309 307 310 314 320 331 333 325 320 315 297 281 274 266 259 255 250 243 238 237 227 220 227 230 237 222 219 221 248 233 222 207 216 176 172 176 186 184 222 251 307 350 3 6 20
nan nan nan nan nan nan nan nan nan nan nan nan nan nan nan nan nan nan nan nan nan nan nan nan nan nan nan nan nan nan nan nan 284 289 288 290 301 319 327 318 303 305 310 315 320 322 329 329 326 323 316 295 281 268 267 264 259 257 250 247 242 234 232 228 234 240 236 226 220 230 226 213 203 211 198 196 203 211 218 228 273 290 349 360 9 14
nan nan nan nan nan nan nan nan nan nan nan nan nan nan nan nan nan nan nan nan nan nan nan nan nan nan nan nan nan nan nan nan 259 284 284 291 303 318 328 327 311 305 312 319 318 320 323 331 324 317 310 291 276 271 274 272 265 259 250 249 243 245 246 242 255 250 242 233 225 226 227 212 195 209 208 217 222 228 239 271 245 329 343 354 4 9
nan nan nan nan nan nan nan nan nan nan nan nan nan nan nan nan nan nan nan nan nan nan nan nan nan nan nan nan nan nan nan nan nan 279 289 294 304 317 326 330 308 293 305 313 319 321 323 326 324 318 308 291 284 274 265 260 259 263 254 253 254 251 246 253 266 262 256 249 234 228 228 229 211 212 216 234 256 258 251 321 303 327 338 346 353 9
nan nan nan nan nan nan nan nan nan nan nan nan nan nan nan nan nan nan nan nan nan nan nan nan nan nan nan nan nan nan nan nan nan nan 286 293 311 323 329 332 311 292 303 306 308 316 319 320 319 313 313 304 282 268 270 265 269 270 268 266 265 259 247 256 279 275 278 265 253 245 247 253 239 235 239 242 266 276 265 308 325 322 335 339 348 356
nan nan nan nan nan nan nan nan nan nan nan nan nan nan nan nan nan nan nan nan nan nan nan nan nan nan nan nan nan nan nan nan nan nan 293 304 321 323 323 332 330 303 297 304 303 309 313 307 315 316 311 300 287 277 279 272 269 271 273 274 280 266 261 257 274 285 283 275 277 266 271 291 263 256 257 261 274 304 319 297 324 310 321 335 338 344
nan nan nan nan nan nan nan nan nan nan nan nan nan nan nan nan nan nan nan nan nan nan nan nan nan nan nan nan nan nan nan nan nan nan 299 305 308 310 315 329 338 311 303 305 304 302 305 312 317 320 313 301 294 282 288 287 279 275 275 285 291 293 285 277 281 300 296 289 288 288 296 292 274 274 274 282 271 289 311 299 300 314 321 325 328 338
nan nan nan nan nan nan nan nan nan nan nan nan nan nan nan nan nan nan nan nan nan nan nan nan nan nan nan nan nan nan nan nan nan nan 294 298 299 294 303 310 310 316 314 310 301 296 302 311 318 319 316 311 295 282 281 279 272 263 263 277 292 305 291 270 287 305 302 308 297 299 297 297 281 281 285 288 295 295 305 307 307 318 320 324 335 337
nan nan nan nan nan nan nan nan nan nan nan nan nan nan nan nan nan nan nan nan nan nan nan nan nan nan nan nan nan nan nan nan nan nan 279 294 292 283 289 294 297 309 309 294 288 291 300 311 315 317 321 314 296 282 272 266 265 264 260 266 284 284 276 267 297 303 328 306 305 299 302 304 285 285 287 298 299 300 310 310 316 306 308 313 322 331
nan nan nan nan nan nan nan nan nan nan nan nan nan nan nan nan nan nan nan nan nan nan nan nan nan nan nan nan nan nan nan nan nan nan 261 290 282 275 282 293 300 313 308 294 294 298 301 299 303 310 316 311 297 288 270 272 266 267 267 273 286 292 281 260 262 325 342 316 299 312 318 325 317 295 296 296 297 297 306 312 318 316 301 303 298 302
nan nan nan nan nan nan nan nan nan nan nan nan nan nan nan nan nan nan nan nan nan nan nan nan nan nan nan nan nan nan nan nan nan nan 259 291 293 288 289 294 303 306 308 310 308 302 299 289 297 310 319 313 303 290 283 276 273 274 268 269 279 282 264 278 270 257 289 303 303 321 328 322 321 324 320 315 317 318 311 315 317 313 307 286 289 290
nan nan nan nan nan nan nan nan nan nan nan nan nan nan nan nan nan nan nan nan nan nan nan nan nan nan nan nan nan nan nan nan nan nan nan nan 281 283 282 289 294 293 305 311 305 299 295 290 299 309 317 321 316 308 289 270 258 257 260 267 279 283 298 298 303 297 260 269 310 319 332 335 336 334 333 320 321 321 313 308 309 306 304 308 300 302
nan nan nan nan nan nan nan nan nan nan nan nan nan nan nan nan nan nan nan nan nan nan nan nan nan nan nan nan nan nan nan nan nan nan nan nan 279 277 273 287 293 295 298 297 294 289 281 273 288 305 321 326 322 299 277 260 260 254 257 270 290 316 323 322 305 306 275 295 263 269 331 342 341 336 331 321 319 318 323 318 311 318 324 317 308 310
nan nan nan nan nan nan nan nan nan nan nan nan nan nan nan nan nan nan nan nan nan nan nan nan nan nan nan nan nan nan nan nan nan nan nan nan nan 269 272 279 285 287 296 302 299 294 287 282 293 310 317 318 312 294 270 267 265 275 274 279 294 306 306 316 331 319 315 313 303 315 323 343 343 336 328 325 321 325 328 320 313 318 318 327 319 314
nan nan nan nan nan nan nan nan nan nan nan nan nan nan nan nan nan nan nan nan nan nan nan nan nan nan nan nan nan nan nan nan nan nan nan nan 271 271 273 278 288 295 301 303 300 292 287 286 294 308 309 308 298 285 275 268 278 279 273 285 298 314 331 344 352 346 350 323 334 337 345 351 344 337 316 321 326 330 328 314 312 313 315 310 319 314
nan nan nan nan nan nan nan nan nan nan nan nan nan nan nan nan nan nan nan nan nan nan nan nan nan nan nan nan nan nan nan nan nan nan nan nan 263 275 275 278 290 294 293 299 293 281 281 284 293 292 291 293 301 306 303 285 272 275 284 290 298 311 326 341 346 349 339 314 325 342 339 346 330 323 314 326 327 330 322 319 315 313 307 313 317 317
nan nan nan nan nan nan nan nan nan nan nan nan nan nan nan nan nan nan nan nan nan nan nan nan nan nan nan nan nan nan nan nan nan nan nan nan 254 271 273 270 279 286 283 288 279 270 273 280 278 285 295 307 320 323 318 295 283 285 289 288 292 312 329 333 340 336 318 318 316 332 324 320 318 316 325 330 317 327 323 319 321 313 318 320 315 318
nan nan nan nan nan nan nan nan nan nan nan nan nan nan nan nan nan nan nan nan nan nan nan nan nan nan nan nan nan nan nan nan nan nan nan nan 249 273 272 272 271 277 277 280 264 252 257 258 265 271 287 307 310 316 325 317 298 285 284 294 298 321 327 327 324 317 315 313 316 321 316 314 313 324 327 330 313 323 324 319 321 321 324 326 321 321
nan nan nan nan nan nan nan nan nan nan nan nan nan nan nan nan nan nan nan nan nan nan nan nan nan nan nan nan nan nan nan nan nan nan nan nan 254 275 283 278 276 276 280 276 266 255 245 250 263 275 295 314 321 319 326 325 319 313 310 299 303 309 317 317 310 312 315 315 321 320 319 321 318 325 331 330 313 324 326 325 323 324 331 328 328 325
nan nan nan nan nan nan nan nan nan nan nan nan nan nan nan nan nan nan nan nan nan nan nan nan nan nan nan nan nan nan nan nan nan nan nan nan 251 274 278 282 288 274 280 285 288 274 260 255 261 269 288 304 316 315 316 321 329 327 318 317 298 299 312 314 298 309 308 310 317 316 327 325 320 331 334 330 323 326 326 326 325 326 330 331 330 323
nan nan nan nan nan nan nan 185 nan nan nan nan nan nan nan nan nan nan nan nan nan nan nan nan nan nan nan nan nan nan nan nan nan nan 255 244 239 250 259 265 269 274 277 290 292 285 261 252 262 267 286 296 301 301 305 314 322 323 321 328 330 320 323 321 319 320 319 319 324 315 328 331 331 327 326 322 319 314 317 323 325 327 329 328 329 326
nan nan nan nan nan nan nan nan nan nan nan nan nan nan nan nan nan nan nan nan nan nan nan nan nan nan nan nan nan nan nan nan nan 258 257 251 251 249 261 271 272 273 292 284 289 287 275 268 265 267 281 295 291 282 286 302 306 315 322 340 347 343 342 340 343 344 342 339 344 342 343 338 331 327 320 311 310 313 317 318 319 321 318 318 328 328
nan nan nan nan nan nan 169 nan nan nan nan nan nan nan nan nan nan nan nan nan nan nan nan 223 nan nan nan nan nan nan nan nan nan 259 264 261 253 240 252 275 275 265 252 256 284 293 293 275 263 276 284 291 288 278 285 291 295 303 316 332 347 349 349 342 346 354 352 350 358 360 344 327 317 310 305 306 308 311 314 314 312 311 312 315 323 321
nan nan nan nan nan nan nan nan nan nan nan nan nan nan nan nan nan nan nan nan nan nan nan 231 248 nan nan nan nan nan nan nan 248 nan 251 252 256 251 237 250 259 251 254 265 284 294 305 296 285 282 276 274 285 287 284 286 290 304 310 320 333 341 335 329 341 348 352 354 353 342 330 322 309 302 302 302 306 306 304 301 303 307 313 318 322 323
nan nan nan nan nan nan nan nan nan nan nan nan nan nan nan nan nan nan nan nan nan nan nan 223 233 nan nan nan nan nan nan nan nan nan nan 249 255 253 245 238 240 246 251 257 267 271 272 269 254 246 257 269 282 292 287 283 286 287 298 300 313 323 319 317 326 339 348 351 338 328 322 315 309 301 304 303 296 294 296 296 292 297 308 313 314 321
nan nan nan nan nan nan nan nan nan nan nan nan nan nan nan nan nan nan nan nan nan nan nan 201 nan nan nan nan nan nan nan nan nan nan nan nan 236 236 240 248 240 244 254 255 260 264 267 268 264 260 260 263 272 280 274 274 280 285 297 295 300 305 305 309 317 330 339 339 328 328 329 323 315 312 311 303 301 296 292 285 285 292 303 310 311 310
nan nan nan nan nan nan nan nan nan nan nan nan nan nan nan nan nan nan nan nan nan nan nan nan nan nan nan nan nan nan nan nan nan nan nan nan nan nan 237 228 223 235 244 249 252 258 264 268 266 262 259 256 263 274 276 275 282 292 293 292 288 283 300 309 302 313 327 329 327 330 330 325 324 322 315 315 309 295 286 288 290 294 300 311 307 299
nan nan nan nan nan nan nan nan nan nan nan nan nan nan nan nan nan nan nan nan nan nan nan nan nan 214 227 nan nan nan nan nan nan nan nan nan nan nan nan nan 230 221 228 238 248 255 256 255 256 255 257 259 260 266 261 261 269 273 275 279 276 284 295 304 297 299 316 320 323 324 325 326 328 326 321 312 306 299 296 295 301 300 296 294 296 305
nan nan nan nan nan nan nan nan nan nan nan nan nan nan nan nan nan nan nan nan nan nan nan nan nan nan 218 212 208 nan nan nan nan nan nan nan nan 225 229 nan nan 248 241 239 238 241 245 248 250 248 245 245 243 243 246 248 250 255 260 267 278 284 289 295 297 289 300 311 313 316 319 322 324 326 320 312 305 301 303 303 298 297 293 295 303 306
nan nan nan nan nan nan nan nan nan nan nan nan nan nan nan nan nan nan nan 204 191 180 nan nan nan 212 nan nan nan nan nan nan nan nan nan 223 224 225 231 234 233 236 238 242 245 242 249 251 250 252 249 243 245 247 251 251 252 256 259 262 274 278 283 284 291 289 287 299 303 307 312 315 317 318 317 312 304 301 302 298 294 297 293 291 290 288
nan nan nan nan nan nan nan nan nan nan nan nan nan nan nan nan nan nan 204 194 186 187 180 209 nan nan nan nan nan nan nan nan 221 220 224 228 224 222 231 232 232 237 239 235 235 234 235 244 248 246 248 245 244 244 243 245 255 260 260 264 268 273 276 278 285 291 286 291 293 296 302 307 310 310 313 314 311 304 295 290 287 278 272 278 287 292
nan nan nan nan nan nan nan nan nan nan nan nan nan nan nan nan nan nan 203 192 186 184 184 193 215 nan nan nan nan nan 227 223 218 222 228 229 224 222 225 232 235 235 235 236 237 236 233 232 235 237 242 241 237 239 244 243 247 256 262 265 264 268 271 276 281 281 282 284 284 284 289 296 300 302 306 312 319 308 286 275 268 269 266 274 283 293
nan nan nan nan nan nan nan nan nan nan nan nan nan nan nan nan nan nan 203 193 182 182 188 194 205 209 215 215 nan nan 230 225 223 226 228 232 229 223 222 225 231 234 235 236 239 240 238 234 233 235 238 240 238 233 232 241 247 248 252 256 265 267 269 274 275 274 275 275 275 275 279 285 291 294 298 307 313 307 293 281 271 261 258 262 267 276
nan nan nan nan nan nan nan nan nan nan nan nan nan nan nan nan nan nan 197 187 179 181 189 195 204 207 209 216 220 220 226 230 230 231 228 229 229 227 224 223 225 226 230 236 235 237 244 244 237 231 230 232 230 229 228 231 240 243 245 246 252 264 271 271 269 265 262 265 269 270 272 275 281 284 289 295 299 299 293 277 267 263 260 257 259 260
nan nan nan nan nan nan nan nan nan nan nan nan nan nan nan nan nan 195 191 180 175 182 192 195 204 204 206 212 214 220 221 227 230 230 229 225 224 224 226 225 223 225 228 232 232 230 235 234 230 229 225 220 217 223 227 228 228 231 238 241 245 252 260 260 260 261 262 262 264 266 269 268 273 276 277 283 288 286 281 278 273 263 257 255 250 249
nan nan nan nan nan nan nan nan nan nan nan nan nan nan nan nan 191 196 187 173 177 188 192 194 200 205 206 211 215 219 223 226 228 228 225 221 221 226 227 223 222 223 228 233 232 228 228 230 224 224 223 220 220 217 225 232 231 227 228 232 233 236 241 249 254 256 255 256 255 258 261 263 263 265 265 272 278 277 271 267 268 262 258 251 249 252
nan nan nan nan nan nan nan nan nan nan nan nan nan nan nan nan 194 194 187 183 187 190 194 195 198 201 206 211 215 219 220 223 226 227 222 218 220 223 226 226 225 223 222 227 232 227 224 230 225 227 227 225 219 217 218 220 230 228 225 223 223 228 243 250 252 254 254 251 249 249 253 254 260 258 255 264 274 276 271 263 262 259 256 256 257 261
nan nan nan nan nan nan nan nan nan nan nan nan nan nan nan nan 199 198 194 191 189 192 194 197 197 201 nan 213 216 219 221 223 225 223 221 218 219 219 219 223 228 226 227 229 229 228 225 229 229 228 233 227 224 216 212 213 220 231 228 225 214 224 237 245 252 255 255 251 247 245 246 249 253 254 253 259 266 270 270 264 259 257 256 257 261 263
nan nan nan nan nan nan nan nan nan nan nan nan nan nan nan nan 204 203 200 195 192 195 197 199 199 201 206 209 216 219 221 224 228 226 223 219 218 216 217 218 219 224 227 232 232 230 233 230 227 234 230 230 227 224 217 215 222 230 226 218 219 219 227 238 244 251 251 249 247 246 245 246 247 249 251 255 261 265 266 264 261 258 255 257 259 261
nan nan nan nan nan nan nan nan nan nan nan nan nan nan nan nan nan 210 205 200 196 198 201 201 200 203 207 nan nan 216 222 229 234 231 226 223 221 218 216 216 218 220 223 229 232 232 233 233 231 238 236 231 228 225 224 221 224 224 218 217 221 222 224 234 242 246 246 247 248 249 249 249 248 249 251 255 256 260 262 264 262 260 258 258 258 260
nan nan nan nan nan nan nan nan nan nan nan nan nan nan nan nan nan nan nan 208 204 202 203 204 205 nan nan nan nan nan 221 230 235 233 229 227 224 222 217 214 212 216 221 225 229 233 235 235 232 238 239 236 230 228 224 221 223 224 221 220 221 223 232 234 240 243 244 246 248 251 251 253 250 249 250 252 254 257 260 261 261 260 261 262 261 262
nan nan nan nan nan nan nan nan nan nan nan nan nan nan nan nan nan nan nan 213 210 208 208 207 207 nan nan nan nan nan 222 228 231 231 231 229 226 223 220 214 210 209 216 222 229 232 234 234 232 238 239 236 233 229 226 227 226 224 222 222 224 231 236 237 239 243 244 246 247 249 251 253 258 256 249 247 249 254 259 260 260 261 262 263 265 265
nan nan nan nan nan nan nan nan nan nan nan nan nan nan nan nan nan nan nan nan nan 213 211 212 212 nan nan nan nan nan nan 226 231 234 233 231 228 225 222 216 213 211 211 216 225 230 234 235 236 236 238 238 237 233 232 231 229 228 227 225 228 235 239 237 237 239 241 245 246 246 247 253 253 251 252 250 247 244 242 240 247 253 250 245 251 263
nan nan nan nan nan nan nan nan nan nan nan nan nan nan nan nan nan nan nan nan nan nan nan nan nan nan nan nan nan nan nan nan 230 235 236 236 233 227 223 220 216 213 212 215 222 227 230 235 237 237 237 237 238 237 236 234 233 232 230 230 231 234 241 243 241 240 237 237 239 239 241 242 248 251 252 252 252 251 245 241 241 242 252 253 250 254
nan nan nan nan nan nan nan nan nan nan nan nan nan nan nan nan nan nan nan nan nan nan nan nan nan nan nan nan nan nan nan nan 226 229 233 236 234 228 224 223 219 216 214 217 222 223 228 234 237 238 239 236 237 238 238 238 237 235 233 233 234 238 240 246 245 243 240 241 242 243 246 248 249 249 250 251 252 251 252 248 241 240 242 247 254 258